Location: Newark
(54.6833°N, 25.2833°E)
Time: 04:14:28
(UTC+00:00)

Transit 2A - All Passes

Search period start: 13 November 2019 00:00
Search period end: 23 November 2019 00:00
Orbit: 601 x 957 km, 66.7° (Epoch: 12 November)

Date Brightness Start Highest point End Pass type
(mag) Time Alt. Az. Time Alt. Az. Time Alt. Az.
13 Nov - 11:56:49 10° SSW 12:01:34 45° ESE 12:05:56 10° NE daylight
13 Nov - 13:40:07 10° WSW 13:44:45 44° NW 13:49:05 10° NE daylight
13 Nov - 15:25:33 10° WNW 15:28:57 20° NNW 15:32:14 10° NE visible
13 Nov - 17:10:20 10° NW 17:13:38 20° NNE 17:16:51 10° ENE visible
13 Nov - 18:53:34 10° NW 18:57:48 45° NE 19:02:01 10° ESE visible
13 Nov - 20:36:52 10° NW 20:40:53 37° WSW 20:44:55 10° S night (unlit)
14 Nov - 11:23:06 10° S 11:27:32 33° ESE 11:31:40 10° NE daylight
14 Nov - 13:05:45 10° WSW 13:10:32 55° NW 13:15:00 10° NE daylight
14 Nov - 14:50:57 10° WNW 14:54:33 22° NNW 14:58:01 10° NNE visible
14 Nov - 16:36:03 10° NW 16:39:13 18° N 16:42:18 10° NE visible
14 Nov - 18:19:27 10° NW 18:23:33 36° NNE 18:27:36 10° ESE visible
14 Nov - 20:02:37 10° NW 20:06:51 51° SW 20:11:07 10° SSE visible
15 Nov - 10:49:35 10° SSE 10:53:33 24° ESE 10:57:17 10° ENE daylight
15 Nov - 12:31:28 10° SW 12:36:21 72° NW 12:40:53 10° NE daylight
15 Nov - 14:16:21 10° WNW 14:20:11 24° NNW 14:23:52 10° NNE daylight
15 Nov - 16:01:42 10° NW 16:04:47 18° N 16:07:49 10° NE visible
15 Nov - 17:45:21 10° NNW 17:49:16 30° NNE 17:53:07 10° E visible
15 Nov - 19:28:25 10° NW 19:32:47 72° SW 19:37:10 10° SSE visible
15 Nov - 21:13:17 10° W 21:15:08 12° WSW 21:16:58 10° SW night (unlit)
16 Nov - 10:16:21 10° SSE 10:19:37 18° ESE 10:22:43 10° ENE daylight
16 Nov - 11:57:17 10° SW 12:02:13 86° SE 12:06:46 10° NE daylight
16 Nov - 13:41:46 10° W 13:45:51 28° NNW 13:49:44 10° NNE daylight
16 Nov - 15:27:16 10° NW 15:30:22 18° N 15:33:22 10° NE visible
16 Nov - 17:11:14 10° NNW 17:14:56 25° NNE 17:18:35 10° E visible
16 Nov - 18:54:17 10° NW 18:58:41 84° NE 19:03:05 10° SE visible
16 Nov - 20:38:18 10° WNW 20:41:14 18° WSW 20:44:12 10° SSW night (unlit)
17 Nov - 09:43:39 10° SE 09:45:43 13° ESE 09:47:43 10° E daylight
17 Nov - 11:23:14 10° SSW 11:28:07 65° SE 11:32:37 10° NE daylight
17 Nov - 13:07:13 10° W 13:11:33 34° NNW 13:15:38 10° NE daylight
17 Nov - 14:52:46 10° NW 14:55:56 18° N 14:59:00 10° NE visible
17 Nov - 16:37:04 10° NNW 16:40:34 22° NNE 16:44:01 10° ENE visible
17 Nov - 18:20:10 10° NW 18:24:31 63° NE 18:28:52 10° SE visible
17 Nov - 20:03:46 10° WNW 20:07:18 25° WSW 20:10:54 10° S visible
18 Nov - 10:49:20 10° SSW 10:54:03 47° ESE 10:58:26 10° NE daylight
18 Nov - 12:32:45 10° WSW 12:37:17 41° NW 12:41:33 10° NE daylight
18 Nov - 14:18:12 10° WNW 14:21:30 19° NNW 14:24:43 10° NE daylight
18 Nov - 16:02:53 10° NW 16:06:11 20° NNE 16:09:26 10° ENE visible
18 Nov - 17:46:03 10° NW 17:50:19 48° NE 17:54:34 10° ESE visible
18 Nov - 19:29:23 10° NW 19:33:20 34° WSW 19:37:20 10° S visible
19 Nov - 10:15:34 10° S 10:20:01 35° ESE 10:24:10 10° NE daylight
19 Nov - 11:58:21 10° WSW 12:03:03 52° NW 12:07:27 10° NE daylight
19 Nov - 13:43:36 10° WNW 13:47:07 21° NNW 13:50:30 10° NNE daylight
19 Nov - 15:28:37 10° NW 15:31:46 19° N 15:34:52 10° NE visible
19 Nov - 17:11:58 10° NW 17:16:04 38° NE 17:20:10 10° ESE visible
19 Nov - 18:55:07 10° NW 18:59:19 48° WSW 19:03:34 10° SSE visible
20 Nov - 09:42:01 10° S 09:46:02 25° ESE 09:49:49 10° ENE daylight
20 Nov - 11:24:03 10° SW 11:28:52 68° NW 11:33:21 10° NE daylight
20 Nov - 13:08:59 10° WNW 13:12:44 23° NNW 13:16:20 10° NNE daylight
20 Nov - 14:54:17 10° NW 14:57:21 18° N 15:00:21 10° NE visible
20 Nov - 16:37:51 10° NNW 16:41:47 31° NNE 16:45:42 10° E visible
20 Nov - 18:20:56 10° NW 18:25:16 67° SW 18:29:39 10° SSE visible
20 Nov - 20:06:04 10° W 20:07:34 12° WSW 20:09:04 10° SW night (unlit)
21 Nov - 09:08:43 10° SSE 09:12:05 19° ESE 09:15:17 10° ENE daylight
21 Nov - 10:49:51 10° SW 10:54:43 89° WNW 10:59:14 10° NE daylight
21 Nov - 12:34:24 10° W 12:38:23 27° NNW 12:42:12 10° NNE daylight
21 Nov - 14:19:52 10° NW 14:22:55 18° N 14:25:54 10° NE daylight
21 Nov - 16:03:44 10° NNW 16:07:28 26° NNE 16:11:10 10° E visible
21 Nov - 17:46:46 10° NW 17:51:09 89° NE 17:55:35 10° SE visible
21 Nov - 19:30:55 10° WNW 19:33:41 17° WSW 19:36:30 10° SSW visible
22 Nov - 08:35:53 10° SE 08:38:10 13° ESE 08:40:24 10° E daylight
22 Nov - 10:15:46 10° SSW 10:20:36 69° SE 10:25:06 10° NE daylight
22 Nov - 11:59:51 10° W 12:04:05 32° NNW 12:08:05 10° NNE daylight
22 Nov - 13:45:23 10° NW 13:48:29 18° N 13:51:31 10° NE daylight
22 Nov - 15:29:36 10° NNW 15:33:07 23° NNE 15:36:36 10° ENE visible
22 Nov - 17:12:39 10° NW 17:17:00 67° NE 17:21:24 10° SE visible
22 Nov - 18:56:19 10° WNW 18:59:46 23° WSW 19:03:16 10° SSW visible
